Regional Weather Roundup
Issued by NWS

Home | Current Version | Previous Version | Text Only | Print | Product List | Glossary Off
Versions: 1 2 3 4 5 6 7 8 9 10 11 12 13 14 15 16 17 18 19 20 21 22 23 24 25 26 27 28 29 30 31 32 33 34 35 36 37 38 39 40 41 42 43 44 45 46 47 48 49 50

000
ASUS45 KBOU 051610
RWRCO

WEATHER ROUNDUP FOR COLORADO
NATIONAL WEATHER SERVICE DENVER/BOULDER CO
1000 AM MDT SUN JUL 05 2015

NOTE: "FAIR" INDICATES FEW OR NO CLOUDS BELOW 12000 FEET WITH NO
SIGNIFICANT WEATHER AND/OR OBSTRUCTIONS TO VISIBILITY.

COZ001>005-013-030-031-051700-
...NORTHWEST COLORADO...

CITY           SKY/WX    TMP DP  RH WIND       PRES   REMARKS
CRAIG          CLOUDY    69  55  60 VRB5      30.19F
HAYDEN         CLOUDY    64  50  59 SW5       30.21S
MEEKER         CLOUDY    68  53  58 CALM      30.20S
MOUNT WERNER   NOT AVBL
STEAMBOAT SPGS CLOUDY    64  52  63 CALM      30.22F
WALDEN         SUNNY     68  48  49 CALM      30.26F
$$

COZ006>008-011-051700-
...WEST CENTRAL VALLEYS...

CITY           SKY/WX    TMP DP  RH WIND       PRES   REMARKS
GRAND JUNCTION CLOUDY    66  62  87 W6        30.12S
MONTROSE       CLOUDY    69  59  70 VRB5      30.19S
EAGLE          CLOUDY    70  52  52 CALM      30.22S
RIFLE          CLOUDY    69  58  67 CALM      30.14F
DELTA          CLOUDY    75  59  56 S5        30.14F
NUCLA          CLOUDY    68  59  73 CALM      30.23S
$$

COZ017>023-064>068-051700-
...SOUTHWEST COLORADO...

CITY           SKY/WX    TMP DP  RH WIND       PRES   REMARKS
DURANGO        CLOUDY    62  56  80 CALM      30.25S
CORTEZ         PTSUNNY   70  57  63 CALM      30.20S
PAGOSA SPRINGS CLOUDY    65  49  57 CALM      30.31S
TELLURIDE      CLOUDY    58  51  76 CALM      30.40S
WOLF CREEK PAS NOT AVBL
$$

COZ009-010-012-014-032>034-037-058>063-051700-
...CENTRAL COLORADO...

CITY           SKY/WX    TMP DP  RH WIND       PRES   REMARKS
ASPEN          PTSUNNY   66  50  56 CALM      30.27F
BUENA VISTA    PTSUNNY   67  47  47 S3        30.26S
COPPER MTN     MOSUNNY   59  45  58 W8        30.56F
BERTHOUD PASS  PTSUNNY   46  36  66 N7        30.60S
COTTONWOOD PAS NOT AVBL
GUNNISON       MOSUNNY   64  46  52 W3        30.30F
KREMMLING      PTSUNNY   70  43  37 CALM      30.26F
LEADVILLE      PTSUNNY   64  43  46 VRB5      30.38F
SALIDA         PTSUNNY   73  47  40 S10       30.29S
SUNLIGHT       CLOUDY    54  50  87 CALM      30.50S
WILKERSON PASS MOSUNNY   59  37  44 NW5       30.52R
$$

COZ069>075-051700-
...SAN LUIS VALLEY/SANGRE DE CRISTO MOUNTAINS...

CITY           SKY/WX    TMP DP  RH WIND       PRES   REMARKS
ALAMOSA        MOSUNNY   67  50  54 VRB3      30.25F
LA VETA PASS   SUNNY     55  45  67 MISG      30.41S
SAGUACHE       MOSUNNY   66  50  55 S5        30.28F
$$

COZ035-036-038>040-051700-
...NORTHERN COLORADO FRONT RANGE...

CITY           SKY/WX    TMP DP  RH WIND       PRES   REMARKS
DENVER INTL AP PTSUNNY   85  46  25 CALM      29.99F
DMNS CITY PARK   N/A     84  50  30 S7        29.98F
AURORA         PTSUNNY   82  51  33 SW3       30.02F
FRONT RANGE AP MOSUNNY   84  48  28 MISG      30.01F
ERIE MUNI ARPT SUNNY     86  46  25 S3        29.96F
BOULDER MUN AP SUNNY     86  50  28 SE3       29.97F
CENTENNIAL     PTSUNNY   81  47  30 W5        30.03F
BROOMFIELD     NOT AVBL
FORT COLLINS   SUNNY     79  57  47 N5        29.97F
LONGMONT       SUNNY     88  51  27 E3        29.97F
$$

COZ041-046-047-076>085-087-088-051700-
...PIKES PEAK/PALMER DIVIDE AND SOUTHERN FOOTHILLS...

CITY           SKY/WX    TMP DP  RH WIND       PRES   REMARKS
COLO. SPRINGS  PTSUNNY   81  46  29 CALM      30.06F
A. F. ACADEMY  SUNNY     79  46  31 N6        30.08F
ELLICOTT       SUNNY    N/A N/A N/A VRB3      30.05S
FALCON         SUNNY     81  44  27 CALM      30.12F
FORT CARSON    MOSUNNY   80  51  37 S2        30.03F
LIMON          SUNNY     81  56  42 SE5       30.00S
MONUMENT HILL  SUNNY     75  48  38 W6        30.13F
TRINIDAD       SUNNY     82  53  36 SW7       30.06S
$$

COZ042>045-048>051-090-091-051700-
...NORTHEAST COLORADO...

CITY           SKY/WX    TMP DP  RH WIND       PRES   REMARKS
GREELEY ARPT   SUNNY     82  54  36 SW3       29.95F
AKRON          SUNNY     83  54  36 SW10      29.94S
BURLINGTON     SUNNY     87  54  32 SW10      29.92S
WRAY           SUNNY     93  53  25 CALM      29.86F
STERLING       SUNNY     82  61  47 SW7         N/A
HOLYOKE        SUNNY     88  61  40 SW6       29.86F
FORT MORGAN    SUNNY     84  51  32 W8        29.94S
$$

COZ086-089-092>099-051700-
...SOUTHEAST COLORADO...

CITY           SKY/WX    TMP DP  RH WIND       PRES   REMARKS
PUEBLO         SUNNY     86  53  32 W9        29.95F
LA JUNTA       SUNNY     85  52  32 CALM      29.93S
LAMAR          SUNNY     87  59  38 VRB3      29.89F
SPRINGFIELD      N/A     83  59  44 S21G29    29.97S
$$


USA.gov is the U.S. government's official web portal to all federal, state and local government web resources and services.